星链-1832 (STARLINK-1832 )

导读

STARLINK-1832是美国太空探索技术公司(SpaceX)星链(Starlink)星座的组网卫星,于北京时间2020年10月24日发射升空。星链计划旨在搭建全球卫星互联网,提供高速低延迟网络服务,该卫星承担为特定区域覆盖网络信号的任务,推动了卫星互联网星座的组网进程。

基本信息
目录编号:
46780
目录名称:
STARLINK-1832
国际标识:
2020-074AT
轨道中心:
EARTH
卫星名称:
星链-1832
卫星全名:
星链-1832 (STARLINK-1832 )
卫星状态:
已陨落 最后检测时间 2026-05-02
发射日期:
2020-10-24 UTC
国别 :
美国 (US)
星等 :
--
轨道信息
数据来源 国际轨道数据
星历时间: 2026-05-02T09:30:25+0800
轨道信息已过期47天
半长轴: 6544.634km
偏心率: 0.0009436
轨道倾角: 53.019°
近地点辐角 256.775°
升交点赤经 354.933°
平近点角 103.225°
近地点: 160.321km
远地点: 172.673km
周期: 87.819分钟
每日圈数: 16.39739
详细信息
固有亮度:
5
最大亮度:
2.5
卫星平台:
Starlink V1.0
覆盖范围:
全球
运营商:
太空探索技术公司
运营商所在国:
美国
制造商(研发单位):
太空探索技术公司
制造商所在国:
美国
使用方式:
暂无
卫星简介
星链(Starlink)计划是由太空探索技术公司(SpaceX)提出的一个巨型低轨卫星互联网星座项目,计划在2019年至2024年间在太空搭建由约1.2万颗卫星组成的“星链”网络,其中1584颗将部署在地球上空550千米处的近地轨道,并从2020年开始工作。该卫星仍在工作。